Reflectivity
-1 -20 -20 -20 -20 -2 -20 -20 -18 -10 -20 -11 6 -6 -20 2 20 -7 -19 -20 -20 -20 -20 -20 -20 -20 -20 -20 -20 -20 -20 -20 -20 -20 -20 -20 -20 -20 -20 -20 -20 -20 -20 -20 -20
11 -6 -20 -20 -20 -17 -14 -20 -20 -15 -20 -20 -20 -12 -20 9 18 15 -20 -20 -20 -20 -20 -20 -20 -20 -20 -20 -20 -20 -20 -20 -20 -20 -20 -20 -20 -20 -20 -20 -20 -20 -20 -20 -20
21 -20 -20 -20 -20 -19 -19 2 -20 -20 -20 -20 -20 -18 -17 -19 -18 -15 -20 -20 -15 22 -20 -20 -20 -20 -20 -20 -20 -20 -20 -20 -20 -20 -20 -20 -20 -20 -20 -20 -20 -20 -20 -20 -20
10 21 -20 -10 -20 -15 -20 -4 -20 -20 -20 -20 -20 -20 -20 -20 -20 -20 -20 -20 -20 -4 -2 -20 -20 -20 -20 -20 -20 -20 -20 -20 -20 -20 -20 -20 -20 -20 -20 -20 -20 -20 -20 -20 -20
-18 10 21 2 -18 -20 -20 -20 -20 -20 -20 -20 2 -4 -18 -20 -20 -20 -20 -20 -20 -3 2 -9 -20 -20 -20 -20 -20 -20 -20 -20 -20 -20 -20 -20 -20 -20 -20 -20 -20 -20 -20 -20 -20
22 11 10 -3 -8 -20 -3 -20 -20 -20 -20 -20 -20 -2 -20 -20 -20 -20 -20 -20 -20 -9 12 -3 -20 -20 -20 -20 -20 -20 -20 -20 -20 -20 -20 -20 -20 -20 -20 -20 -20 -20 -20 -20 -20
18 22 -20 18 12 -14 -5 -20 1 -20 -20 -20 -20 -20 -20 -20 -20 -20 -20 -20 -20 -20 -20 -18 -3 -20 7 -20 -20 -20 -20 -20 -20 -20 -20 -20 -20 -20 -20 -20 -20 -20 -20 -20 -20
32 23 -13 20 10 -4 -20 -20 -10 -17 -20 -20 -13 -20 -20 -20 -20 -20 -20 -20 -20 -20 -20 -20 -20 -20 -20 -20 -20 0 -20 -20 -20 -20 -20 -20 -20 -20 -20 -20 -20 -20 -20 -20 -20
14 33 20 21 21 19 -20 -20 19 -20 -20 -9 -20 -20 -20 -20 -20 -20 -20 -20 -20 -20 -20 -20 -20 -20 -20 0 -12 -10 -20 -20 -20 -20 -20 -20 -20 -20 -20 -20 -20 -20 -20 -20 -20
-6 19 22 22 25 24 -17 -20 13 -20 -20 16 -20 -19 -20 -20 -20 -20 -20 -20 -20 -20 -20 -20 -20 -20 -2 1 -20 -20 -20 -20 -20 -20 -20 -20 -20 -20 -20 -20 -20 -20 -20 -20 -20
11 10 34 24 26 19 11 -20 -16 -20 -20 -20 -20 -20 -20 -20 -20 -20 -20 -20 -20 -20 -20 -20 -20 -20 -20 -20 -20 -20 -18 -20 -20 -20 -20 -20 -20 -20 -20 -20 -20 -20 -20 -20 -20
13 7 25 16 26 21 -15 -20 -20 -20 -20 -20 -20 -20 -20 -20 -20 -20 -20 -20 -20 -20 -20 -20 -13 -20 -20 -20 -20 -20 -17 -19 -20 -20 -20 -20 -20 -20 -20 -20 -20 -20 -20 -20 -20
16 5 15 32 33 32 -1 19 -20 -20 -20 -20 -20 -20 -20 -20 -20 -20 -20 -20 -20 -20 -20 -20 -20 -20 -20 -20 -20 -20 -20 -20 -20 -20 -20 -20 -20 -20 -20 -20 -20 -20 -20 -20 -20
-19 -19 4 36 35 29 25 -10 -20 -20 -20 -20 -10 -20 -20 7 -17 -20 -20 -20 -20 -20 -20 -20 -20 -20 -20 -20 -20 -20 -20 -20 -20 -2 -7 -20 -20 -20 -20 -20 -20 -20 -20 -20 -20
-20 -20 -16 27 34 29 16 24 -20 -20 -20 -20 -3 -20 10 -18 -20 -20 -20 -19 -6 -20 -20 -20 -20 -20 -20 -20 -20 -17 -20 -20 -20 -6 -14 -20 2 -20 -20 -20 -20 -20 -20 -20 -20
-0 -20 -5 18 40 33 21 5 -16 -20 -20 -9 -6 6 7 -5 5 -15 -11 6 -15 10 -7 -20 -20 -20 -20 -20 -20 -13 -2 -1 -12 -1 7 -20 -20 -20 -20 -20 -20 -20 -20 -20 -20
5 -20 3 21 40 35 31 19 -19 -20 -20 -13 -11 2 0 -12 0 6 6 9 7 7 3 5 -5 -13 -19 -20 -20 15 28 9 10 10 -15 -20 -20 -20 -20 -20 -20 -20 -20 -20 -20
27 11 -9 23 38 38 29 10 -20 -20 -20 -20 -19 0 -12 -5 -20 -20 10 7 14 1 8 -9 -20 -5 -20 -20 -20 -20 15 16 -2 -20 -20 -20 -20 -20 -20 -20 -20 -20 -20 -20 -20
23 16 19 27 41 41 28 4 -20 -20 -20 -20 -11 -20 -3 -20 -11 4 3 -20 -20 -6 -2 -15 -20 -20 -20 -20 -20 7 5 3 14 12 15 -19 -20 -20 -20 -20 -20 -20 -20 -20 -20
21 21 24 37 35 40 20 -20 -20 -20 -20 -20 -20 -20 -20 -20 -20 -17 -4 -20 -15 -20 -20 -12 -12 -20 -20 -20 -16 -4 -10 2 17 20 10 -20 -20 -20 -20 -20 -20 -20 -20 -20 -20
17 20 29 43 37 36 31 -20 -20 -20 -20 -20 -20 -20 -20 -20 -20 -18 -20 -20 -20 -20 -20 -7 -10 -20 -10 -8 -20 3 -2 21 8 -1 -20 -20 -20 -20 -20 -20 -20 -20 -20 -20 -20
21 18 24 30 40 36 12 -20 -20 -20 -20 -20 -20 -20 -20 -20 -13 -19 -20 -20 -20 -20 -20 -20 -12 -20 -20 -20 1 6 -18 6 -13 -20 -19 -20 -20 -20 -20 -20 -20 -20 -20 -20 -20
21 27 29 24 22 34 10 -20 -20 -20 -20 -20 -20 -20 -19 5 -2 -20 -20 -20 -20 -20 -20 -20 -5 -20 -20 -17 -1 29 20 20 14 12 13 -5 -20 -20 -20 -20 -20 -20 -20 -20 -20
12 16 42 32 17 2 0 2 -20 -20 -14 -20 -11 -7 4 13 7 -3 -20 -20 -20 -20 -20 -20 0 -20 -20 -6 32 20 13 26 28 22 11 11 -18 -20 -20 -20 -1 -20 -20 -20 -20
-9 -19 22 18 27 -16 -11 -6 22 -17 -15 0 8 16 7 18 -4 15 -20 -20 -20 -20 -20 -20 2 3 -9 18 30 32 23 26 23 22 23 10 2 -20 -20 -0 -20 -20 -20 9 3
-17 23 4 -10 -12 17 -15 6 26 -3 -5 2 8 3 23 14 -17 -20 -20 -20 -20 -20 -20 10 19 24 14 27 29 32 17 30 27 19 28 20 7 -20 -20 -20 -20 -20 -20 17 16
22 28 13 27 9 12 6 7 4 -9 -20 -20 -20 22 26 7 -10 -18 -16 -20 -20 -0 11 29 28 18 10 29 29 31 32 20 6 3 21 15 -10 -4 18 21 7 -16 -15 -2 15
Wind_Speed
14 10 9 11 10 9 7 6 7 7 8 10 11 9 7 9 6 5 6 8 6 9 3 3 3 4 2 2 2 3 1 5 6 7 6 1 1 4 4 3 4 2 2 3 4
15 14 10 10 11 9 8 8 5 6 6 8 9 9 5 4 6 10 9 11 7 3 3 3 2 4 2 1 2 4 4 6 5 6 3 2 2 2 4 6 4 4 4 4 5
16 15 13 10 10 9 8 7 5 4 5 7 7 8 7 4 3 5 14 20 16 8 5 3 2 2 1 1 3 3 7 3 3 3 3 3 4 2 2 4 7 2 8 5 4
15 17 15 11 11 10 8 7 5 3 4 5 5 6 4 3 7 2 3 3 10 7 6 4 3 3 3 5 4 3 5 4 2 4 4 2 4 6 4 7 3 4 5 4 4
16 15 16 14 12 11 9 7 5 4 1 4 4 3 1 2 8 3 7 9 3 11 8 7 3 4 4 3 1 4 4 4 4 7 7 6 10 9 10 9 10 9 6 10 9
19 15 16 16 14 12 10 8 6 4 2 2 2 2 2 3 3 4 3 4 5 6 5 6 5 5 2 3 3 2 3 5 5 5 5 8 13 4 7 8 9 8 9 9 9
23 18 15 17 15 14 12 9 7 4 3 3 1 2 1 11 2 2 6 2 1 3 5 4 4 3 0 2 2 3 5 6 6 6 7 4 16 18 14 11 13 14 10 11 10
21 21 15 17 17 15 13 11 9 6 4 3 2 2 7 3 1 2 2 2 1 2 2 3 6 4 2 4 2 2 1 3 4 5 6 9 18 9 8 15 15 14 10 10 13
22 21 20 16 18 17 14 11 8 6 3 4 2 2 8 4 2 4 5 4 3 3 2 3 4 4 2 1 4 5 8 5 7 2 4 10 5 3 5 3 9 9 10 10 11
25 19 23 16 19 18 14 9 7 4 1 2 2 2 3 2 2 3 3 6 3 4 3 3 2 4 4 5 6 4 8 10 8 3 4 9 15 14 9 12 13 10 10 9 10
23 19 19 18 20 19 15 8 4 1 3 7 4 3 1 1 2 2 3 5 4 4 5 2 3 8 10 8 10 4 3 9 4 7 7 12 17 18 14 12 13 13 12 11 11
23 19 15 20 19 23 10 6 7 6 3 12 9 6 2 2 2 2 6 5 4 5 4 1 11 8 5 4 5 8 13 18 13 12 11 13 25 20 18 20 18 15 16 12 11
20 22 15 23 17 17 16 5 8 7 2 4 6 7 3 5 4 4 8 4 4 5 7 8 3 7 9 6 5 6 12 8 14 9 12 11 27 18 19 21 23 20 19 16 12
22 23 20 21 13 14 12 10 6 5 5 5 4 5 5 6 6 8 9 6 2 9 5 9 9 9 5 5 9 14 8 14 13 6 8 4 13 5 4 10 11 15 13 14 14
27 25 23 14 6 14 13 10 6 7 2 3 5 1 6 10 2 2 3 3 7 7 6 6 4 7 15 13 8 4 7 8 10 8 7 8 8 6 5 8 9 9 11 14 16
29 24 17 11 5 12 20 14 4 7 8 6 4 6 6 5 1 4 5 3 3 9 12 11 3 3 7 7 14 3 4 4 3 4 13 11 10 13 8 9 8 10 11 14 13
15 16 9 2 5 18 18 8 6 5 0 7 5 6 6 6 4 4 6 8 5 5 7 4 12 6 4 4 7 8 4 3 5 7 8 7 12 23 6 9 8 10 11 10 9
4 7 6 5 13 20 12 4 5 6 6 7 6 8 6 7 4 4 4 7 10 6 1 3 6 13 13 17 7 17 11 5 6 5 5 5 11 11 9 16 19 16 14 6 5
12 1 3 5 14 16 12 3 9 7 7 9 11 6 6 7 3 7 10 5 7 15 7 5 7 2 5 6 9 5 13 14 6 3 4 6 9 11 9 10 13 8 11 13 9
3 2 4 10 16 12 8 6 3 4 7 6 5 5 6 8 8 7 7 4 7 12 10 2 7 3 3 3 11 8 1 5 6 5 5 7 8 14 10 17 14 11 12 10 8
3 3 6 10 10 7 6 3 3 3 6 5 4 5 4 6 9 6 5 4 7 5 14 6 5 1 5 9 12 9 9 7 3 5 5 4 7 6 12 7 9 17 12 10 12
2 3 10 12 7 3 6 6 4 5 2 2 3 5 6 8 7 8 8 6 6 10 11 10 4 7 15 10 16 19 13 17 8 6 5 4 20 5 5 6 7 13 10 4 8
3 1 11 16 4 4 3 3 4 4 4 3 3 3 6 6 5 8 3 6 8 10 12 9 6 5 5 3 8 11 18 20 19 8 14 5 16 9 12 10 5 5 4 4 6
3 3 4 3 1 11 8 5 4 2 4 4 2 4 5 6 9 3 5 5 13 12 10 12 5 8 12 10 3 7 16 18 17 11 13 17 22 19 15 16 7 3 5 6 7
1 2 2 6 3 8 6 9 9 5 2 7 5 12 7 5 6 8 8 4 4 11 8 8 8 12 21 23 18 12 13 21 20 23 13 10 19 24 18 11 6 6 7 10 11
1 2 4 8 11 8 5 7 11 7 8 5 8 8 11 6 7 8 5 4 6 4 8 5 5 3 18 19 19 25 24 18 21 21 21 20 23 12 9 11 12 7 10 12 12
4 3 3 11 9 8 7 8 12 9 8 8 12 10 10 15 16 14 2 5 3 2 6 3 3 3 11 6 12 5 11 18 14 12 17 17 23 10 13 14 12 9 12 13 13
Wind_Direction
252 233 248 265 273 286 285 291 301 305 312 314 320 332 326 219 198 168 229 229 193 245 49 1 41 347 73 104 141 139 118 227 226 160 231 290 124 324 291 320 324 276 197 268 87
244 250 227 250 266 276 283 284 298 312 309 310 312 337 23 168 217 219 233 243 247 199 64 50 356 3 47 178 198 159 193 235 197 191 242 275 342 358 345 343 328 319 328 349 139
245 238 241 231 252 260 270 278 285 303 307 304 309 347 39 21 284 245 233 242 244 242 119 104 92 71 229 104 216 189 235 277 280 297 272 265 284 224 238 265 228 281 302 340 313
261 237 231 226 237 244 253 262 274 286 297 309 320 352 18 35 226 312 352 293 228 154 124 108 83 120 180 215 219 222 239 216 280 331 321 261 320 311 244 239 232 256 269 288 281
271 244 226 220 220 231 234 242 250 249 281 306 336 8 27 206 252 306 4 3 359 147 166 188 140 150 196 220 279 205 232 260 297 301 274 275 260 254 252 258 276 286 276 263 260
280 266 223 213 209 218 219 228 234 230 247 292 325 102 103 234 252 349 284 13 34 126 155 159 179 192 233 244 186 294 273 262 272 260 279 266 265 234 241 234 269 259 267 268 240
301 270 235 211 203 205 210 213 213 210 224 248 137 90 209 244 80 358 12 89 12 120 149 161 192 149 128 233 276 271 306 298 218 220 245 247 262 236 252 229 246 260 253 262 257
324 283 259 217 197 198 203 205 207 179 199 216 128 77 245 245 315 263 140 310 82 198 104 148 166 182 179 307 321 291 255 305 315 227 236 176 261 300 250 221 227 239 237 245 256
319 320 277 237 198 189 190 197 172 147 210 208 100 138 262 311 188 242 163 169 113 116 126 146 137 179 161 171 285 183 261 255 315 272 260 205 289 253 360 288 253 243 248 238 248
311 315 314 256 204 184 176 151 128 93 360 232 326 348 259 243 181 129 201 142 120 118 105 121 161 179 162 183 224 241 238 256 257 286 353 284 278 284 288 298 278 259 252 245 246
309 312 313 276 209 173 139 119 97 340 231 209 194 222 296 298 127 92 148 99 86 78 169 159 175 207 203 220 245 257 266 267 268 292 315 267 274 275 277 261 264 270 265 245 249
311 311 306 297 222 163 148 169 177 162 211 235 254 266 274 38 45 104 134 123 130 171 122 78 240 222 215 202 227 247 266 266 275 250 260 281 277 276 264 260 253 244 256 254 254
320 318 299 308 225 152 171 186 137 133 93 270 209 226 178 156 237 208 161 132 143 146 190 203 205 203 185 200 212 217 233 252 256 294 269 287 282 263 255 240 245 237 235 247 238
307 312 307 307 213 153 167 156 150 115 62 246 202 245 162 154 277 191 170 145 159 190 187 247 242 242 198 203 190 255 198 239 251 251 256 153 286 237 279 272 238 249 235 229 226
302 299 295 270 158 164 144 147 123 59 23 160 145 55 157 162 155 33 162 179 176 186 159 226 194 208 226 222 173 253 178 212 229 235 274 226 275 278 235 273 269 246 227 221 225
285 277 276 292 247 136 133 130 95 59 245 165 125 175 152 199 177 124 170 219 2 224 228 242 176 196 208 228 212 197 236 267 274 228 246 216 205 261 229 229 228 237 230 227 229
280 248 233 261 189 141 130 147 99 186 48 165 167 166 194 163 206 172 173 190 192 199 222 227 231 212 208 201 188 193 167 218 224 210 251 195 206 250 265 271 256 251 256 236 229
318 226 199 195 161 144 144 108 130 172 185 140 131 142 172 178 212 210 201 220 221 206 285 254 297 195 193 206 179 198 200 222 236 229 256 195 236 251 213 238 254 245 255 268 245
318 19 156 149 174 147 148 168 184 183 164 144 145 160 195 184 177 196 219 227 223 193 204 219 255 360 204 204 173 165 212 221 265 197 239 239 286 285 249 247 262 254 250 249 208
314 210 125 190 151 164 161 175 140 163 124 140 135 185 166 164 180 188 189 221 219 190 187 292 285 199 195 166 260 208 258 177 199 228 233 248 260 249 317 306 285 270 249 232 198
187 164 141 162 138 158 191 114 158 166 118 139 165 149 158 163 195 191 231 271 200 185 174 179 215 313 143 207 199 196 218 218 261 199 197 261 257 214 229 273 293 309 280 222 191
125 123 162 159 146 182 150 164 133 143 70 108 109 110 171 174 202 208 225 230 159 142 181 197 236 232 234 217 207 215 221 214 214 200 231 202 263 210 250 218 360 331 288 233 164
144 188 167 148 147 142 155 96 99 129 174 137 132 180 189 202 219 207 206 239 174 168 173 165 224 295 280 257 233 224 226 226 235 259 230 200 257 187 243 282 354 336 15 67 110
119 111 39 124 278 154 148 139 111 50 142 115 148 174 204 213 210 249 233 261 186 193 184 169 211 220 250 254 200 218 220 216 223 232 237 230 264 272 290 293 313 321 151 139 137
86 140 179 169 220 166 121 154 176 151 173 179 214 230 211 217 214 222 228 274 193 206 179 179 250 234 254 260 251 239 222 215 217 234 238 259 246 269 280 308 263 239 158 158 159
79 191 168 149 150 169 142 175 177 185 178 201 227 205 223 221 218 206 223 164 234 145 162 207 272 270 273 269 254 250 240 220 217 223 242 248 266 273 305 329 312 195 174 180 165
338 269 75 163 153 159 191 178 192 174 192 211 208 218 226 234 235 257 190 276 227 211 216 224 249 269 281 314 292 266 245 225 224 205 207 219 238 287 288 275 285 198 190 179 169